CFG9M EDDF-MPTO

Flight info

Callsign CFG9M
Flight time N/A
Altitude 36000
Route SOBRA1F SOBRA Y180 DIK UN857 TOLVU DCT RAPOR DCT GIMER DCT ESTOC UT300 SENLO UN502 JSY DCT LIZAD DCT GAPLI DCT LIMRI/M081F360 DCT 52N020W 51N030W 4930N04000W 48N050W DCT NICSO DCT LOMPI M202 JEBBY DCT 41N060W 37N065W DCT LUNKR DCT AWSOM DCT DUNIG DCT RABAL DCT LAMER/N0474F360 DCT GTK G444 ONGAN UG444 LIDOL UM597 AGUJA AKRIN1
Aircraft A333/H-SDE3GHIJ2J3J5M1RVWXY/LB2D1

Departure

Time 2026-05-06 21:21
Airport Frankfurt Main Airport (EDDF)

Arrival

Time N/A
Airport Tocumen International Airport (MPTO)
Time Latitude Longitude Altitude Speed Heading
2026-05-06 20:44 50.04763 8.57747 359 ft 0 kts 270°
2026-05-06 21:06 50.04764 8.57767 359 ft 2 kts 243°
2026-05-06 21:06 50.04772 8.57789 359 ft 2 kts 225°
2026-05-06 21:06 50.04784 8.57805 359 ft 2 kts 208°
2026-05-06 21:07 50.04799 8.57815 359 ft 2 kts 194°
2026-05-06 21:07 50.04815 8.57820 355 ft 2 kts 184°
2026-05-06 21:07 50.04832 8.57820 353 ft 2 kts 173°
2026-05-06 21:07 50.04847 8.57815 359 ft 2 kts 155°
2026-05-06 21:08 50.04855 8.57811 359 ft 0 kts 121°
2026-05-06 21:13 50.04854 8.57812 359 ft 1 kts 119°
2026-05-06 21:14 50.04824 8.57879 357 ft 10 kts 140°
2026-05-06 21:14 50.04770 8.57920 356 ft 8 kts 165°
2026-05-06 21:14 50.04727 8.57913 351 ft 5 kts 197°
2026-05-06 21:14 50.04707 8.57885 358 ft 3 kts 245°
2026-05-06 21:15 50.04690 8.57822 354 ft 9 kts 248°
2026-05-06 21:15 50.04662 8.57712 358 ft 14 kts 249°
2026-05-06 21:15 50.04625 8.57555 358 ft 17 kts 250°
2026-05-06 21:15 50.04584 8.57356 357 ft 21 kts 252°
2026-05-06 21:16 50.04527 8.57132 358 ft 24 kts 247°
2026-05-06 21:16 50.04460 8.56875 354 ft 27 kts 250°
2026-05-06 21:16 50.04394 8.56587 357 ft 30 kts 250°
2026-05-06 21:16 50.04322 8.56285 357 ft 30 kts 250°
2026-05-06 21:17 50.04250 8.55976 359 ft 31 kts 250°
2026-05-06 21:17 50.04176 8.55667 356 ft 30 kts 248°
2026-05-06 21:17 50.04101 8.55363 356 ft 30 kts 249°
2026-05-06 21:17 50.04028 8.55056 355 ft 30 kts 250°
2026-05-06 21:18 50.03955 8.54747 354 ft 31 kts 250°
2026-05-06 21:18 50.03881 8.54437 354 ft 30 kts 248°
2026-05-06 21:18 50.03786 8.54166 356 ft 27 kts 250°
2026-05-06 21:18 50.03720 8.53889 357 ft 28 kts 249°
2026-05-06 21:19 50.03653 8.53608 354 ft 28 kts 249°
2026-05-06 21:19 50.03580 8.53314 356 ft 30 kts 250°
2026-05-06 21:19 50.03508 8.53013 358 ft 30 kts 249°
2026-05-06 21:19 50.03432 8.52718 357 ft 29 kts 249°
2026-05-06 21:20 50.03392 8.52601 359 ft 5 kts 210°
2026-05-06 21:20 50.03359 8.52594 358 ft 9 kts 184°
2026-05-06 21:20 50.03160 8.52595 359 ft 57 kts 179°
2026-05-06 21:20 50.02568 8.52598 349 ft 112 kts 180°
2026-05-06 21:21 50.01634 8.52610 359 ft 157 kts 179°
2026-05-06 21:21 50.00448 8.52627 643 ft 176 kts 179°
2026-05-06 21:21 49.99227 8.52842 1293 ft 176 kts 175°
2026-05-06 21:21 49.98011 8.52946 1975 ft 174 kts 179°
2026-05-06 21:22 49.96776 8.52985 2403 ft 183 kts 180°
2026-05-06 21:22 49.95439 8.53017 2514 ft 202 kts 180°
2026-05-06 21:22 49.93967 8.53063 2638 ft 222 kts 179°
2026-05-06 21:22 49.92352 8.53163 2765 ft 241 kts 178°
2026-05-06 21:23 49.90621 8.53329 2923 ft 257 kts 176°
2026-05-06 21:23 49.88788 8.53566 3182 ft 269 kts 175°
2026-05-06 21:23 49.86944 8.53456 3732 ft 263 kts 194°
2026-05-06 21:23 49.85217 8.52576 4226 ft 262 kts 201°
2026-05-06 21:24 49.83506 8.51528 4586 ft 266 kts 202°
2026-05-06 21:24 49.81775 8.50468 5014 ft 270 kts 201°
2026-05-06 21:24 49.80015 8.49420 5663 ft 272 kts 201°
2026-05-06 21:24 49.78258 8.48304 6342 ft 273 kts 208°
2026-05-06 21:25 49.76769 8.46506 6977 ft 275 kts 232°
2026-05-06 21:25 49.75946 8.43900 7596 ft 277 kts 259°
2026-05-06 21:25 49.75962 8.40922 8236 ft 279 kts 279°
2026-05-06 21:25 49.76386 8.37984 8878 ft 282 kts 284°
2026-05-06 21:26 49.76892 8.35038 9504 ft 285 kts 285°
2026-05-06 21:26 49.77404 8.32075 10111 ft 288 kts 284°
2026-05-06 21:26 49.77924 8.28995 10397 ft 304 kts 284°
2026-05-06 21:26 49.78462 8.25734 10552 ft 323 kts 284°
2026-05-06 21:27 49.79021 8.22290 10698 ft 342 kts 284°
2026-05-06 21:27 49.79610 8.18635 10955 ft 355 kts 284°
2026-05-06 21:27 49.80206 8.14913 11517 ft 357 kts 284°
2026-05-06 21:27 49.80802 8.11180 12138 ft 358 kts 284°